Location: Unspecified
(42.3650°N, 71.1030°W)
Time: 17:21:28
(UTC+00:00)

Transit 2A - Pass Details

Date: 26 June 2024
Orbit: 591 x 960 km, 66.7° (Epoch: 16 July)

Event Time Altitude Azimuth Distance (km) Brightness Sun altitude
Rises 01:33:57 0° 337° (NNW) 3,494 10.8 -10.6°
Reaches altitude 10° 01:37:42 10° 1° (N) 2,614 9.4 -11.1°
Maximum altitude 01:41:02 15° 34° (NE) 2,320 8.6 -11.5°
Drops below altitude 10° 01:44:26 10° 67° (ENE) 2,680 8.6 -11.9°
Enters shadow 01:47:59 - 89° (E) 3,533 9.0 -12.4°
